CFE25JV LFMN-EGLC

Flight info

Callsign CFE25JV
Flight time N/A
Altitude 38000
Route BADOD DCT NEDRU DCT LTP DCT BULOL DCT IDAVO DCT BAGBI DCT SIZZA DCT LAULY DCT BRY DCT CLM DCT KOPOR DCT VESAN DCT RATUK L613 SOVAT
Aircraft E190/M-SDE3GILORVW/S

Departure

Time 2026-05-01 12:28
Airport Nice-Côte d'Azur Airport (LFMN)

Arrival

Time N/A
Airport London City Airport (EGLC)
Time Latitude Longitude Altitude Speed Heading
2026-05-01 11:55 43.66506 7.21536 29 ft 0 kts 315°
2026-05-01 12:14 43.66506 7.21537 29 ft 1 kts 315°
2026-05-01 12:15 43.66497 7.21549 29 ft 2 kts 314°
2026-05-01 12:15 43.66486 7.21564 29 ft 2 kts 315°
2026-05-01 12:15 43.66479 7.21573 29 ft 2 kts 314°
2026-05-01 12:15 43.66472 7.21591 29 ft 2 kts 280°
2026-05-01 12:16 43.66472 7.21612 29 ft 2 kts 254°
2026-05-01 12:16 43.66478 7.21629 29 ft 1 kts 230°
2026-05-01 12:16 43.66483 7.21636 29 ft 1 kts 222°
2026-05-01 12:16 43.66485 7.21638 28 ft 0 kts 224°
2026-05-01 12:20 43.66483 7.21636 28 ft 0 kts 224°
2026-05-01 12:20 43.66468 7.21616 29 ft 3 kts 224°
2026-05-01 12:21 43.66436 7.21572 28 ft 8 kts 226°
2026-05-01 12:21 43.66391 7.21508 28 ft 10 kts 225°
2026-05-01 12:21 43.66345 7.21431 28 ft 10 kts 229°
2026-05-01 12:21 43.66288 7.21353 28 ft 12 kts 224°
2026-05-01 12:22 43.66222 7.21261 28 ft 14 kts 224°
2026-05-01 12:22 43.66146 7.21156 28 ft 16 kts 225°
2026-05-01 12:22 43.66061 7.21040 28 ft 17 kts 225°
2026-05-01 12:22 43.65975 7.20923 28 ft 17 kts 225°
2026-05-01 12:23 43.65885 7.20805 28 ft 18 kts 219°
2026-05-01 12:23 43.65793 7.20682 28 ft 18 kts 225°
2026-05-01 12:23 43.65700 7.20555 28 ft 19 kts 224°
2026-05-01 12:23 43.65602 7.20429 28 ft 19 kts 227°
2026-05-01 12:24 43.65510 7.20294 28 ft 19 kts 224°
2026-05-01 12:24 43.65432 7.20193 28 ft 14 kts 211°
2026-05-01 12:24 43.65339 7.20212 28 ft 14 kts 140°
2026-05-01 12:24 43.65277 7.20300 28 ft 2 kts 133°
2026-05-01 12:25 43.65276 7.20302 28 ft 0 kts 133°
2026-05-01 12:25 43.65273 7.20306 28 ft 1 kts 133°
2026-05-01 12:25 43.65255 7.20332 28 ft 9 kts 135°
2026-05-01 12:26 43.65187 7.20424 28 ft 14 kts 135°
2026-05-01 12:26 43.65017 7.20400 28 ft 14 kts 224°
2026-05-01 12:26 43.64943 7.20298 28 ft 15 kts 224°
2026-05-01 12:27 43.64855 7.20228 28 ft 15 kts 172°
2026-05-01 12:27 43.64811 7.20437 28 ft 13 kts 44°
2026-05-01 12:28 43.65412 7.21277 29 ft 141 kts 47°
2026-05-01 12:28 43.66219 7.22316 546 ft 169 kts 45°
2026-05-01 12:28 43.66542 7.25339 2059 ft 197 kts 116°
2026-05-01 12:29 43.65535 7.26823 2690 ft 227 kts 141°
2026-05-01 12:29 43.64269 7.28093 3757 ft 229 kts 134°
2026-05-01 12:29 43.62079 7.31055 5985 ft 226 kts 138°
2026-05-01 12:30 43.59069 7.31110 7791 ft 244 kts 211°
2026-05-01 12:30 43.57643 7.29858 8678 ft 247 kts 211°
2026-05-01 12:30 43.56174 7.28583 9531 ft 252 kts 212°
2026-05-01 12:31 43.54977 7.26883 10332 ft 255 kts 247°
2026-05-01 12:31 43.54741 7.24534 11119 ft 254 kts 285°
2026-05-01 12:31 43.55534 7.22417 11915 ft 252 kts 310°
2026-05-01 12:31 43.56609 7.20525 12720 ft 256 kts 310°
2026-05-01 12:32 43.57700 7.18606 13508 ft 259 kts 310°
2026-05-01 12:32 43.59941 7.14658 15044 ft 267 kts 310°
2026-05-01 12:32 43.61124 7.12689 15781 ft 269 kts 320°
2026-05-01 12:33 43.62612 7.10941 15919 ft 298 kts 323°
2026-05-01 12:33 43.64309 7.09016 15987 ft 329 kts 322°
2026-05-01 12:33 43.66123 7.06948 16255 ft 351 kts 322°
2026-05-01 12:33 43.68023 7.04779 16919 ft 358 kts 322°
2026-05-01 12:34 43.69907 7.02624 17235 ft 349 kts 322°
2026-05-01 12:34 43.71771 7.00493 17276 ft 350 kts 322°
2026-05-01 12:34 43.73653 6.98338 17286 ft 352 kts 322°
2026-05-01 12:34 43.75524 6.96195 17291 ft 352 kts 322°
2026-05-01 12:35 43.77425 6.94015 17283 ft 352 kts 322°
2026-05-01 12:35 43.79288 6.91877 17288 ft 352 kts 322°
2026-05-01 12:35 43.81184 6.89699 17292 ft 352 kts 322°
2026-05-01 12:35 43.83057 6.87546 17289 ft 353 kts 322°
2026-05-01 12:36 43.84988 6.85326 17601 ft 370 kts 322°
2026-05-01 12:36 43.86963 6.83050 18458 ft 372 kts 322°
2026-05-01 12:36 43.88953 6.80757 19514 ft 368 kts 322°
2026-05-01 12:36 43.90879 6.78535 20466 ft 367 kts 322°
2026-05-01 12:37 43.92834 6.76278 21273 ft 368 kts 322°
2026-05-01 12:37 43.94918 6.74158 21965 ft 371 kts 331°
2026-05-01 12:37 43.97159 6.72362 22618 ft 376 kts 332°
2026-05-01 12:37 43.99408 6.70562 23282 ft 381 kts 332°
2026-05-01 12:38 44.01715 6.68713 23990 ft 384 kts 332°
2026-05-01 12:38 44.04008 6.66873 24687 ft 386 kts 331°
2026-05-01 12:38 44.06350 6.64991 25373 ft 388 kts 331°
2026-05-01 12:38 44.08696 6.63105 26021 ft 391 kts 331°
2026-05-01 12:39 44.11046 6.61214 26639 ft 394 kts 330°
2026-05-01 12:39 44.13406 6.59313 27235 ft 397 kts 330°
2026-05-01 12:39 44.15812 6.57373 27838 ft 400 kts 330°
2026-05-01 12:39 44.18225 6.55426 28429 ft 402 kts 330°
2026-05-01 12:40 44.20635 6.53479 28997 ft 405 kts 330°
2026-05-01 12:40 44.23071 6.51508 29586 ft 408 kts 330°
2026-05-01 12:40 44.25527 6.49519 30167 ft 410 kts 330°
2026-05-01 12:40 44.27985 6.47527 30731 ft 413 kts 330°
2026-05-01 12:41 44.30494 6.45491 31290 ft 415 kts 329°
2026-05-01 12:41 44.32955 6.43491 31844 ft 417 kts 329°
2026-05-01 12:41 44.35462 6.41453 32389 ft 419 kts 329°
2026-05-01 12:41 44.37986 6.39399 32992 ft 419 kts 329°
2026-05-01 12:42 44.40496 6.37354 33695 ft 416 kts 329°
2026-05-01 12:42 44.42968 6.35338 34434 ft 412 kts 329°
2026-05-01 12:42 44.45412 6.33343 35192 ft 408 kts 328°
2026-05-01 12:42 44.47861 6.31342 35912 ft 406 kts 328°
2026-05-01 12:43 44.50269 6.29373 36567 ft 404 kts 328°
2026-05-01 12:43 44.52682 6.27397 37175 ft 403 kts 328°
2026-05-01 12:43 44.55123 6.25396 37758 ft 402 kts 328°
2026-05-01 12:43 44.57534 6.23419 38251 ft 400 kts 328°
2026-05-01 12:44 44.62412 6.19411 38200 ft 417 kts 328°
2026-05-01 12:44 44.67505 6.15218 38325 ft 431 kts 328°
2026-05-01 12:45 44.72670 6.10959 38302 ft 430 kts 328°
2026-05-01 12:45 44.77821 6.06701 38307 ft 429 kts 328°
2026-05-01 12:46 44.82961 6.02444 38307 ft 429 kts 328°
2026-05-01 12:46 44.88090 5.98186 38297 ft 430 kts 328°
2026-05-01 12:47 44.93225 5.93914 38290 ft 431 kts 328°
2026-05-01 12:47 44.98433 5.89573 38281 ft 431 kts 328°
2026-05-01 12:48 45.03576 5.85277 38293 ft 431 kts 328°
2026-05-01 12:48 45.08707 5.80925 38291 ft 432 kts 326°
2026-05-01 12:49 45.13731 5.76312 38292 ft 431 kts 326°
2026-05-01 12:49 45.18797 5.71673 38286 ft 432 kts 326°
2026-05-01 12:50 45.23812 5.67073 38274 ft 433 kts 326°
2026-05-01 12:50 45.28888 5.62406 38255 ft 433 kts 326°
2026-05-01 12:51 45.33918 5.57772 38245 ft 433 kts 325°
2026-05-01 12:52 45.41502 5.50766 38245 ft 434 kts 325°
2026-05-01 12:52 45.49130 5.43828 38237 ft 436 kts 331°
2026-05-01 12:53 45.57465 5.38618 38234 ft 439 kts 335°
2026-05-01 12:54 45.63057 5.35154 38234 ft 438 kts 334°
2026-05-01 12:54 45.71424 5.29957 38233 ft 438 kts 334°
2026-05-01 12:55 45.79786 5.24746 38232 ft 439 kts 334°
2026-05-01 12:56 45.85380 5.21250 38225 ft 440 kts 334°
2026-05-01 12:56 45.91000 5.17731 38228 ft 441 kts 334°
2026-05-01 12:57 45.96610 5.14210 38224 ft 441 kts 334°
2026-05-01 12:57 46.05022 5.08914 38221 ft 442 kts 334°
2026-05-01 12:58 46.10641 5.05344 38209 ft 442 kts 334°
2026-05-01 12:59 46.19072 4.99975 38204 ft 443 kts 333°
2026-05-01 12:59 46.27527 4.94571 38200 ft 445 kts 333°
2026-05-01 13:00 46.36055 4.89102 38203 ft 448 kts 333°
2026-05-01 13:01 46.44558 4.83630 38215 ft 447 kts 334°
2026-05-01 13:02 46.53137 4.78090 38212 ft 449 kts 334°
2026-05-01 13:07 47.16144 4.37010 38204 ft 454 kts 334°
2026-05-01 13:08 47.21896 4.33223 38205 ft 456 kts 334°
2026-05-01 13:08 47.27689 4.29398 38202 ft 457 kts 334°
2026-05-01 13:09 47.33483 4.25564 38206 ft 456 kts 334°
2026-05-01 13:09 47.39281 4.21719 38199 ft 459 kts 334°
2026-05-01 13:10 47.45075 4.17866 38199 ft 458 kts 334°
2026-05-01 13:10 47.50899 4.13984 38198 ft 459 kts 334°
2026-05-01 13:11 47.56673 4.10130 38192 ft 459 kts 334°
2026-05-01 13:11 47.62505 4.06233 38191 ft 462 kts 334°
2026-05-01 13:12 47.68383 4.02296 38186 ft 462 kts 334°
2026-05-01 13:12 47.74209 3.98385 38181 ft 462 kts 334°
2026-05-01 13:13 47.80062 3.94445 38178 ft 463 kts 334°
2026-05-01 13:13 47.85939 3.90478 38181 ft 463 kts 334°
2026-05-01 13:14 47.91787 3.86522 38179 ft 463 kts 334°
2026-05-01 13:14 47.97666 3.82536 38181 ft 465 kts 335°
2026-05-01 13:15 48.03505 3.78566 38167 ft 464 kts 335°
2026-05-01 13:15 48.09377 3.74563 38180 ft 463 kts 335°
2026-05-01 13:16 48.15033 3.70229 38175 ft 463 kts 324°
2026-05-01 13:16 48.19713 3.63801 38175 ft 460 kts 311°
2026-05-01 13:17 48.28400 3.49630 38167 ft 462 kts 311°
2026-05-01 13:18 48.32746 3.42531 38048 ft 460 kts 311°
2026-05-01 13:18 48.34895 3.39014 38165 ft 464 kts 311°
2026-05-01 13:18 48.39338 3.31958 38275 ft 465 kts 317°
2026-05-01 13:19 48.44775 3.26745 38018 ft 465 kts 337°
2026-05-01 13:19 48.50745 3.23069 38294 ft 467 kts 336°
2026-05-01 13:20 48.53737 3.21167 38154 ft 464 kts 336°
2026-05-01 13:20 48.59714 3.17343 38186 ft 466 kts 336°
2026-05-01 13:21 48.68653 3.11601 38181 ft 467 kts 336°
2026-05-01 13:21 48.74618 3.07757 38183 ft 468 kts 336°
2026-05-01 13:22 48.80598 3.03894 38167 ft 466 kts 336°
2026-05-01 13:22 48.86478 2.99646 38192 ft 468 kts 329°
2026-05-01 13:23 48.92098 2.94732 38176 ft 468 kts 329°
2026-05-01 13:23 48.97732 2.89800 38179 ft 467 kts 329°
2026-05-01 13:24 49.03396 2.84829 38179 ft 468 kts 330°
2026-05-01 13:25 49.11822 2.77410 38188 ft 467 kts 330°
2026-05-01 13:25 49.17426 2.72459 38175 ft 468 kts 329°
2026-05-01 13:26 49.23047 2.67480 38170 ft 467 kts 329°
2026-05-01 13:26 49.28657 2.62498 38192 ft 468 kts 329°
2026-05-01 13:27 49.34286 2.57486 38173 ft 468 kts 329°
2026-05-01 13:27 49.42730 2.49941 38179 ft 469 kts 329°
2026-05-01 13:28 49.51204 2.42528 38159 ft 459 kts 336°
2026-05-01 13:29 49.63126 2.36839 38183 ft 452 kts 344°
2026-05-01 13:30 49.75264 2.31309 35806 ft 455 kts 344°
2026-05-01 13:31 49.81356 2.28524 34792 ft 461 kts 344°
2026-05-01 13:31 49.90585 2.24290 33216 ft 465 kts 344°
2026-05-01 13:32 49.96814 2.21422 32173 ft 467 kts 344°
2026-05-01 13:33 50.06134 2.17117 30617 ft 467 kts 344°
2026-05-01 13:33 50.12281 2.14268 29584 ft 458 kts 344°
2026-05-01 13:34 50.18346 2.11450 28580 ft 453 kts 344°
2026-05-01 13:34 50.24337 2.08658 27579 ft 449 kts 344°
2026-05-01 13:35 50.30270 2.05887 26597 ft 443 kts 344°
2026-05-01 13:35 50.33205 2.04513 26112 ft 440 kts 344°
2026-05-01 13:35 50.38662 2.00536 25157 ft 434 kts 320°
2026-05-01 13:36 50.40974 1.97478 24653 ft 431 kts 318°
2026-05-01 13:36 50.43223 1.94439 24181 ft 427 kts 317°
2026-05-01 13:36 50.47662 1.88394 23247 ft 423 kts 317°
2026-05-01 13:37 50.49890 1.85350 22781 ft 420 kts 317°
2026-05-01 13:37 50.52075 1.82361 22323 ft 417 kts 317°
2026-05-01 13:37 50.54253 1.79378 21869 ft 414 kts 317°
2026-05-01 13:37 50.56385 1.76453 21420 ft 411 kts 317°
2026-05-01 13:38 50.60671 1.70565 20511 ft 406 kts 317°
2026-05-01 13:38 50.62761 1.67688 20081 ft 403 kts 317°
2026-05-01 13:38 50.64872 1.64779 19647 ft 401 kts 317°
2026-05-01 13:39 50.66967 1.61886 19201 ft 398 kts 317°
2026-05-01 13:39 50.69019 1.59047 18749 ft 394 kts 317°
2026-05-01 13:39 50.71066 1.56214 18330 ft 392 kts 317°